Theta_e
327 327 328 329 328 328 329 328 327 328 329 329 332 339 342 342 342 342 341 337 335 333 333 334 333 332 332 330 329 328 327 327 327 327 327 326 326 327 325 326 326 327 327
327 327 329 329 328 328 327 327 328 327 328 330 335 341 343 343 341 340 337 335 332 334 333 333 334 330 331 330 327 326 326 326 327 327 326 326 326 327 325 325 325 327 325
326 327 328 329 328 328 327 327 328 328 331 332 337 342 343 343 342 340 338 335 333 333 333 333 331 330 330 328 326 325 325 325 326 325 326 325 324 323 324 325 325 326 325
325 326 327 327 327 327 329 329 330 333 337 338 341 344 343 342 342 341 338 333 333 333 333 333 332 328 326 325 325 324 325 325 324 324 323 323 324 326 324 323 324 326 327
325 326 327 327 326 328 329 332 335 337 342 344 345 345 343 342 341 333 334 332 332 333 333 331 330 326 325 324 323 324 324 323 323 323 323 323 323 324 326 325 325 326 326
326 326 326 326 329 332 333 335 336 344 346 346 344 342 342 338 334 333 334 333 333 332 331 331 329 326 325 323 323 323 323 324 323 324 323 324 323 323 324 325 325 326 326
326 329 328 331 334 335 336 335 340 344 344 343 342 340 336 334 333 334 333 331 331 330 330 327 325 325 325 325 324 325 325 325 324 325 325 324 324 322 323 325 325 325 326
332 333 335 336 336 337 337 340 343 344 343 340 337 333 333 333 333 332 331 331 330 330 327 325 326 324 324 324 325 325 325 325 325 325 325 325 324 323 324 323 322 326 325
336 337 337 338 338 338 338 340 342 341 337 335 333 334 334 333 332 331 329 329 327 327 325 325 324 325 326 325 326 326 324 325 324 325 325 324 325 325 324 325 325 324 325
338 338 339 338 338 339 339 340 340 337 335 333 333 333 331 329 330 332 331 327 326 325 325 325 325 326 326 326 326 326 326 325 323 324 325 326 326 325 325 325 326 326 322
338 338 338 338 338 337 336 337 335 334 333 332 332 330 330 328 330 327 328 328 327 326 326 328 328 328 327 326 325 325 325 324 324 325 324 326 326 326 326 326 327 327 325
337 338 338 338 336 335 336 335 334 333 332 332 329 328 328 329 329 329 328 327 327 325 327 328 328 328 327 327 328 325 324 325 326 325 325 324 323 325 326 326 327 327 327
337 338 338 337 337 336 334 332 332 332 331 330 330 328 328 328 329 328 328 326 326 326 326 327 328 328 328 327 328 330 329 324 323 324 326 323 325 327 328 328 328 328 327
337 337 337 337 336 335 334 333 333 332 331 330 328 328 328 328 329 328 326 324 326 325 326 326 327 328 328 328 330 330 330 329 324 325 324 325 324 327 328 328 328 327 326
336 336 336 336 335 335 334 333 331 331 331 328 328 328 328 330 328 328 326 326 326 326 326 326 327 327 327 324 329 330 330 329 326 327 327 326 326 327 327 328 327 327 326
335 336 336 335 335 334 334 332 331 331 331 329 328 328 328 328 327 327 327 327 326 326 327 328 326 328 324 324 329 330 329 326 327 328 328 328 328 326 326 324 326 327 326
334 335 335 335 335 334 332 330 330 330 330 330 329 328 328 327 326 326 326 327 326 326 326 327 326 328 327 324 328 330 329 327 327 327 328 328 328 326 326 326 326 326 324
334 335 335 335 335 334 330 329 329 329 329 329 329 329 329 327 326 327 326 327 327 326 326 327 327 327 326 324 329 330 328 327 328 328 329 328 326 326 326 325 325 325 324
334 334 334 335 335 334 328 327 329 329 329 329 329 330 330 327 327 326 327 327 326 326 326 326 327 327 323 326 329 329 329 328 328 329 328 327 326 325 325 325 324 323 323
334 334 334 334 334 332 327 327 329 328 329 330 330 330 328 328 328 327 328 329 328 328 328 328 327 328 323 328 329 329 328 328 328 329 328 327 325 324 324 324 322 323 323
333 334 334 334 333 329 327 327 327 327 329 330 330 330 329 329 328 328 329 328 328 328 328 329 329 324 326 328 330 329 328 328 328 328 328 327 325 324 323 323 323 323 323
334 334 334 333 331 328 327 326 327 328 329 330 330 330 329 328 328 329 329 329 329 328 329 330 329 325 327 328 329 329 329 328 327 327 327 327 327 324 324 324 323 323 324
334 333 334 332 329 327 326 326 326 328 328 331 330 330 330 330 330 328 327 331 329 328 328 328 327 325 328 329 329 329 328 328 327 327 327 327 327 326 325 325 324 324 324
334 334 333 331 328 327 326 324 325 327 327 331 330 331 331 330 328 324 329 329 328 328 327 327 326 327 328 329 329 329 328 328 326 326 327 326 328 327 326 325 325 324 323
333 334 333 332 330 327 326 324 325 327 327 331 330 331 331 330 330 323 326 328 329 329 328 327 325 327 328 328 328 327 328 327 325 324 325 325 325 326 326 326 325 325 323
333 335 334 332 331 327 326 324 326 326 327 331 330 331 331 331 330 323 328 329 329 328 330 329 328 326 327 328 327 327 326 326 324 324 324 325 325 326 325 325 324 324 324
Wind_Speed
43 39 38 36 27 23 19 25 23 19 21 28 33 35 37 31 27 24 24 22 16 16 15 16 15 16 19 21 18 18 18 18 17 16 17 18 21 19 19 16 18 19 19
40 35 25 23 26 27 26 26 29 24 25 31 33 38 35 28 24 24 21 14 17 18 17 15 14 17 20 19 18 17 18 17 14 15 13 12 19 18 20 20 20 22 18
34 36 30 26 30 32 28 23 24 26 30 30 32 34 33 25 22 21 19 15 14 15 14 15 17 17 19 18 16 13 12 10 12 14 10 6 8 8 17 20 21 20 17
39 39 37 37 35 28 20 21 22 24 28 27 28 30 34 31 26 20 16 17 16 16 17 18 16 15 15 12 9 8 10 11 12 14 16 15 3 4 3 18 23 19 19
36 37 32 35 30 21 21 21 20 20 24 20 21 23 25 25 21 17 19 19 20 19 17 15 13 12 9 8 7 8 8 10 12 16 16 17 20 12 6 6 19 22 18
30 34 35 25 23 24 21 19 18 21 19 18 18 20 22 21 20 19 20 19 16 14 14 14 13 9 6 5 5 6 5 6 8 11 14 16 18 22 11 10 20 23 18
26 23 17 22 28 26 22 20 21 22 21 21 23 21 21 19 18 18 17 15 12 11 12 13 10 7 5 4 5 5 4 5 5 7 9 12 12 15 13 15 15 21 17
15 18 24 29 27 24 22 23 24 26 25 24 22 21 21 15 17 16 13 9 10 10 11 8 7 6 5 6 6 4 5 4 5 6 8 10 13 14 15 11 14 18 18
23 27 27 26 24 23 24 26 26 28 26 25 23 21 16 16 14 12 9 7 8 9 6 5 3 2 2 5 6 6 6 6 5 5 7 10 12 14 13 13 13 22 14
27 28 27 24 22 22 24 26 27 28 26 23 21 16 12 11 10 8 8 7 7 8 7 5 4 2 2 4 6 6 7 6 7 7 7 10 12 11 10 12 15 20 20
32 30 26 23 22 24 27 28 28 26 23 19 15 14 12 7 5 3 6 7 9 8 9 6 4 2 2 4 4 6 6 8 9 7 7 11 13 14 15 14 18 20 18
33 29 27 26 27 28 26 26 27 24 21 18 16 14 9 6 4 3 5 11 11 11 6 2 2 4 6 4 5 7 9 9 8 9 10 11 10 10 13 16 20 23 19
33 32 31 29 29 27 25 27 25 22 20 18 16 11 7 6 4 6 7 8 9 10 5 2 2 4 5 5 4 5 7 13 12 10 11 11 10 11 12 17 22 21 21
38 35 32 31 28 26 26 25 23 21 20 17 14 9 8 8 5 10 7 14 15 9 5 4 2 4 6 5 6 5 3 6 11 9 10 10 10 9 9 10 17 23 24
35 36 34 33 30 28 26 23 21 21 22 16 13 8 5 5 10 13 12 13 10 7 6 4 2 2 5 6 7 5 3 7 9 5 9 10 8 8 10 9 20 24 29
33 36 35 33 31 28 27 24 22 21 20 16 12 6 6 10 12 11 14 12 11 7 8 5 1 3 4 6 6 5 6 9 9 10 13 14 16 16 9 10 13 26 33
34 37 36 34 32 28 27 26 24 19 18 18 10 7 8 10 13 13 11 12 9 9 7 6 4 4 5 5 4 4 6 9 11 9 12 14 13 11 13 14 25 28 33
35 37 35 34 31 28 27 24 24 19 17 16 11 11 9 13 14 12 12 11 10 10 10 7 5 5 6 3 3 6 9 10 8 9 11 11 12 12 17 24 30 28 31
37 36 35 34 31 31 28 25 26 22 19 16 15 12 12 16 15 12 13 11 12 13 11 10 8 6 3 1 4 7 10 9 10 11 12 13 14 20 23 29 29 35 37
36 37 36 35 33 33 31 26 28 22 21 18 15 13 14 16 14 10 9 9 11 12 12 11 7 4 4 5 6 7 10 11 14 15 13 14 19 22 25 27 30 31 35
33 36 38 37 35 34 31 26 26 22 21 20 12 16 15 13 12 10 9 8 10 11 12 11 8 5 7 7 8 8 7 9 14 18 20 18 20 22 25 27 28 26 33
30 37 39 38 35 34 30 26 23 24 22 22 17 18 16 13 11 9 10 10 8 8 9 11 10 9 9 10 10 9 9 8 9 19 20 20 19 24 23 23 27 27 27
30 39 39 37 36 33 29 28 23 25 22 25 21 20 18 15 11 9 14 12 9 8 7 9 10 13 11 11 12 11 11 8 10 18 21 22 20 21 23 21 24 27 27
29 38 37 37 37 34 29 27 25 25 21 28 24 23 18 13 8 10 10 9 9 9 7 9 11 12 14 15 14 12 13 12 17 20 22 22 19 21 23 23 21 28 27
15 24 35 35 34 33 29 27 26 26 22 29 25 24 20 16 10 11 12 10 7 5 4 6 8 13 16 16 14 12 17 19 20 22 22 23 24 25 23 25 26 28 31
20 17 32 34 31 34 30 29 29 29 23 30 27 25 22 19 12 12 14 11 9 6 5 3 3 8 11 16 13 13 15 21 23 22 22 22 22 25 27 29 29 27 31
Wind_Direction
269 271 277 263 256 250 248 242 254 248 249 248 237 225 221 215 209 210 208 197 212 221 220 237 270 266 271 281 285 283 276 267 257 249 242 238 228 233 232 239 227 226 228
279 279 271 259 247 253 254 252 250 249 244 240 227 217 207 203 200 192 209 216 206 210 224 264 270 273 278 279 281 271 267 262 247 238 239 237 234 226 233 243 235 222 225
280 280 271 254 248 247 259 246 246 251 236 223 216 208 205 200 195 207 220 228 213 226 252 256 268 279 277 276 273 263 254 254 238 228 214 202 216 219 239 236 227 219 208
275 276 272 262 257 252 234 239 243 231 219 212 208 202 200 204 212 219 231 203 221 236 248 259 268 281 276 268 260 254 244 237 223 223 227 231 195 197 230 222 221 212 214
282 281 279 275 266 230 227 220 212 209 203 197 195 193 197 202 200 203 205 213 230 237 254 266 271 275 267 259 263 257 251 246 239 233 234 233 234 241 235 220 206 207 217
276 285 279 269 212 193 196 197 194 185 181 177 178 187 185 184 193 194 195 209 221 237 261 269 268 254 256 267 268 253 244 248 246 239 233 227 224 220 228 217 203 207 213
274 262 227 187 176 176 178 179 180 166 163 165 171 177 177 177 187 197 199 204 222 252 263 264 242 239 256 253 227 222 213 224 222 227 224 216 214 216 239 214 196 197 200
215 191 174 168 168 164 164 167 168 156 159 167 169 175 184 186 178 185 197 223 255 258 262 223 214 238 248 244 230 227 222 243 234 230 209 209 210 207 221 202 197 181 188
174 169 165 163 157 159 160 164 165 159 160 166 172 173 168 173 182 189 202 232 249 240 186 183 197 192 229 243 252 247 236 228 223 221 219 217 213 213 219 220 207 194 166
159 158 159 156 156 158 157 161 164 160 162 165 171 169 174 172 184 197 221 237 212 165 154 135 128 142 288 286 265 262 253 239 210 219 209 192 202 208 210 213 203 208 204
160 158 155 155 153 154 153 157 162 162 163 166 165 154 144 166 186 189 200 187 174 152 138 126 115 21 351 303 276 238 225 206 209 215 219 195 193 201 213 212 202 199 207
160 157 155 152 152 152 153 159 163 162 160 156 148 144 156 202 195 185 181 178 161 153 148 141 302 325 321 317 301 249 232 210 212 211 213 207 213 214 210 201 198 199 201
156 155 154 155 156 152 153 157 160 156 155 148 163 154 178 214 207 184 170 185 179 156 186 196 282 314 328 317 317 312 216 217 216 218 213 215 204 206 210 199 200 198 182
155 157 157 159 160 157 156 159 162 161 157 155 161 172 200 220 209 172 155 161 159 168 192 198 239 303 330 346 344 336 198 191 191 188 202 194 196 205 195 193 166 170 169
154 160 162 163 165 164 164 163 162 165 162 164 163 177 207 198 172 164 158 150 167 175 180 206 236 313 348 357 10 15 93 160 176 194 179 176 180 167 122 159 169 167 158
158 164 166 165 167 168 170 167 168 167 176 180 167 181 187 150 158 169 168 171 178 185 205 212 301 329 2 11 29 46 111 134 131 125 134 139 148 151 146 163 162 171 163
165 167 171 171 171 168 168 170 171 167 181 174 172 178 154 170 161 156 164 172 187 188 208 211 248 310 336 2 39 85 116 140 142 141 145 140 142 146 145 175 174 176 167
171 173 174 176 175 174 168 165 168 169 173 172 179 169 179 164 157 169 175 184 188 200 214 224 243 296 313 347 49 117 122 129 127 135 141 140 140 145 147 161 166 165 167
179 178 179 178 177 176 169 171 176 171 172 181 183 174 171 162 160 173 184 202 206 213 220 230 252 281 266 161 115 141 143 130 124 134 137 135 121 135 145 152 155 159 160
181 182 182 180 178 179 174 171 175 174 177 179 176 165 163 158 164 179 193 212 214 219 227 231 233 249 203 165 145 144 150 138 131 130 136 132 130 132 138 143 146 145 152
190 188 184 180 180 179 175 171 173 176 182 180 176 161 161 167 178 183 198 211 191 198 219 212 212 191 177 174 160 152 164 147 133 138 141 138 138 140 141 147 148 146 157
185 188 183 181 178 180 177 172 175 171 189 182 175 165 164 173 189 204 202 190 182 179 189 195 195 186 176 169 162 154 163 146 139 146 146 143 142 147 148 148 159 155 157
174 183 184 180 180 182 181 175 174 177 190 190 179 173 176 190 199 204 178 182 183 189 185 186 187 180 171 171 166 163 158 147 144 144 145 144 148 153 157 150 162 166 163
173 182 182 182 182 185 186 178 172 182 191 185 183 183 181 180 182 187 181 181 179 184 181 173 179 180 170 170 165 164 161 153 147 146 148 150 157 156 160 172 170 171 167
138 188 187 186 188 188 187 179 175 185 191 186 188 190 186 180 174 179 178 182 166 153 144 167 178 179 176 171 172 165 158 159 153 143 148 155 158 161 167 174 174 179 180
70 167 196 194 193 192 188 184 183 189 194 190 192 194 189 183 185 176 178 187 203 190 201 201 160 165 179 176 167 157 157 161 163 158 150 152 158 165 168 173 177 178 185